Year,Month,Day,Hour,Minute,Value (Times are PST for temperature in C)
2016,06,27,00,00,16.60
2016,06,27,00,01,16.60
2016,06,27,00,02,16.60
2016,06,27,00,03,16.60
2016,06,27,00,04,16.60
2016,06,27,00,05,16.60
2016,06,27,00,06,16.50
2016,06,27,00,07,16.50
2016,06,27,00,08,16.50
2016,06,27,00,09,16.40
2016,06,27,00,10,16.40
2016,06,27,00,11,16.40
2016,06,27,00,12,16.40
2016,06,27,00,13,16.40
2016,06,27,00,14,16.40
2016,06,27,00,15,16.30
2016,06,27,00,16,16.30
2016,06,27,00,17,16.30
2016,06,27,00,18,16.30
2016,06,27,00,19,16.30
2016,06,27,00,20,16.30
2016,06,27,00,21,16.30
2016,06,27,00,22,16.30
2016,06,27,00,23,16.30
2016,06,27,00,24,16.30
2016,06,27,00,25,16.30
2016,06,27,00,26,16.30
2016,06,27,00,27,16.30
2016,06,27,00,28,16.30
2016,06,27,00,29,16.20
2016,06,27,00,30,16.20
2016,06,27,00,31,16.20
2016,06,27,00,32,16.20
2016,06,27,00,33,16.20
2016,06,27,00,34,16.20
2016,06,27,00,35,16.20
2016,06,27,00,36,16.20
2016,06,27,00,37,16.20
2016,06,27,00,38,16.20
2016,06,27,00,39,16.20
2016,06,27,00,40,16.20
2016,06,27,00,41,16.20
2016,06,27,00,42,16.20
2016,06,27,00,43,16.20
2016,06,27,00,44,16.20
2016,06,27,00,45,16.20
2016,06,27,00,46,16.20
2016,06,27,00,47,16.20
2016,06,27,00,48,16.20
2016,06,27,00,49,16.10
2016,06,27,00,50,16.10
2016,06,27,00,51,16.10
2016,06,27,00,52,16.10
2016,06,27,00,53,16.00
2016,06,27,00,54,16.00
2016,06,27,00,55,16.00
2016,06,27,00,56,15.90
2016,06,27,00,57,15.90
2016,06,27,00,58,15.90
2016,06,27,00,59,15.80
2016,06,27,01,00,15.80
2016,06,27,01,01,15.70
2016,06,27,01,02,15.70
2016,06,27,01,03,15.70
2016,06,27,01,04,15.70
2016,06,27,01,05,15.70
2016,06,27,01,06,15.70
2016,06,27,01,07,15.70
2016,06,27,01,08,15.70
2016,06,27,01,09,15.60
2016,06,27,01,10,15.60
2016,06,27,01,11,15.60
2016,06,27,01,12,15.60
2016,06,27,01,13,15.60
2016,06,27,01,14,15.50
2016,06,27,01,15,15.50
2016,06,27,01,16,15.50
2016,06,27,01,17,15.50
2016,06,27,01,18,15.40
2016,06,27,01,19,15.40
2016,06,27,01,20,15.40
2016,06,27,01,21,15.40
2016,06,27,01,22,15.30
2016,06,27,01,23,15.30
2016,06,27,01,24,15.30
2016,06,27,01,25,15.30
2016,06,27,01,26,15.30
2016,06,27,01,27,15.30
2016,06,27,01,28,15.30
2016,06,27,01,29,15.30
2016,06,27,01,30,15.30
2016,06,27,01,31,15.30
2016,06,27,01,32,15.30
2016,06,27,01,33,15.30
2016,06,27,01,34,15.30
2016,06,27,01,35,15.20
2016,06,27,01,36,15.20
2016,06,27,01,37,15.20
2016,06,27,01,38,15.20
2016,06,27,01,39,15.20
2016,06,27,01,40,15.20
2016,06,27,01,41,15.10
2016,06,27,01,42,15.10
2016,06,27,01,43,15.10
2016,06,27,01,44,15.10
2016,06,27,01,45,15.10
2016,06,27,01,46,15.10
2016,06,27,01,47,15.00
2016,06,27,01,48,15.00
2016,06,27,01,49,15.00
2016,06,27,01,50,14.90
2016,06,27,01,51,14.90
2016,06,27,01,52,14.90
2016,06,27,01,53,14.90
2016,06,27,01,54,14.90
2016,06,27,01,55,14.80
2016,06,27,01,56,14.80
2016,06,27,01,57,14.80
2016,06,27,01,58,14.80
2016,06,27,01,59,14.80
2016,06,27,02,00,14.80
2016,06,27,02,01,14.80
2016,06,27,02,02,14.70
2016,06,27,02,03,14.70
2016,06,27,02,04,14.70
2016,06,27,02,05,14.70
2016,06,27,02,06,14.70
2016,06,27,02,07,14.70
2016,06,27,02,08,14.70
2016,06,27,02,09,14.70
2016,06,27,02,10,14.70
2016,06,27,02,11,14.70
2016,06,27,02,12,14.60
2016,06,27,02,13,14.60
2016,06,27,02,14,14.60
2016,06,27,02,15,14.60
2016,06,27,02,16,14.60
2016,06,27,02,17,14.60
2016,06,27,02,18,14.60
2016,06,27,02,19,14.60
2016,06,27,02,20,14.50
2016,06,27,02,21,14.50
2016,06,27,02,22,14.50
2016,06,27,02,23,14.50
2016,06,27,02,24,14.40
2016,06,27,02,25,14.40
2016,06,27,02,26,14.40
2016,06,27,02,27,14.40
2016,06,27,02,28,14.40
2016,06,27,02,29,14.40
2016,06,27,02,30,14.40
2016,06,27,02,31,14.40
2016,06,27,02,32,14.40
2016,06,27,02,33,14.40
2016,06,27,02,34,14.40
2016,06,27,02,35,14.40
2016,06,27,02,36,14.40
2016,06,27,02,37,14.40
2016,06,27,02,38,14.30
2016,06,27,02,39,14.30
2016,06,27,02,40,14.30
2016,06,27,02,41,14.30
2016,06,27,02,42,14.30
2016,06,27,02,43,14.30
2016,06,27,02,44,14.30
2016,06,27,02,45,14.30
2016,06,27,02,46,14.30
2016,06,27,02,47,14.30
2016,06,27,02,48,14.20
2016,06,27,02,49,14.20
2016,06,27,02,50,14.20
2016,06,27,02,51,14.20
2016,06,27,02,52,14.20
2016,06,27,02,53,14.20
2016,06,27,02,54,14.20
2016,06,27,02,55,14.10
2016,06,27,02,56,14.10
2016,06,27,02,57,14.10
2016,06,27,02,58,14.00
2016,06,27,02,59,14.00
2016,06,27,03,00,14.00
2016,06,27,03,01,13.90
2016,06,27,03,02,13.90
2016,06,27,03,03,13.90
2016,06,27,03,04,13.90
2016,06,27,03,05,13.80
2016,06,27,03,06,13.80
2016,06,27,03,07,13.80
2016,06,27,03,08,13.80
2016,06,27,03,09,13.80
2016,06,27,03,10,13.80
2016,06,27,03,11,13.80
2016,06,27,03,12,13.80
2016,06,27,03,13,13.80
2016,06,27,03,14,13.80
2016,06,27,03,15,13.70
2016,06,27,03,16,13.70
2016,06,27,03,17,13.70
2016,06,27,03,18,13.70
2016,06,27,03,19,13.70
2016,06,27,03,20,13.70
2016,06,27,03,21,13.70
2016,06,27,03,22,13.70
2016,06,27,03,23,13.60
2016,06,27,03,24,13.60
2016,06,27,03,25,13.60
2016,06,27,03,26,13.60
2016,06,27,03,27,13.50
2016,06,27,03,28,13.50
2016,06,27,03,29,13.40
2016,06,27,03,30,13.40
2016,06,27,03,31,13.40
2016,06,27,03,32,13.40
2016,06,27,03,33,13.30
2016,06,27,03,34,13.30
2016,06,27,03,35,13.30
2016,06,27,03,36,13.30
2016,06,27,03,37,13.30
2016,06,27,03,38,13.20
2016,06,27,03,39,13.20
2016,06,27,03,40,13.20
2016,06,27,03,41,13.20
2016,06,27,03,42,13.20
2016,06,27,03,43,13.20
2016,06,27,03,44,13.10
2016,06,27,03,45,13.10
2016,06,27,03,46,13.10
2016,06,27,03,47,13.10
2016,06,27,03,48,13.10
2016,06,27,03,49,13.10
2016,06,27,03,50,13.10
2016,06,27,03,51,13.10
2016,06,27,03,52,13.00
2016,06,27,03,53,13.00
2016,06,27,03,54,13.00
2016,06,27,03,55,13.00
2016,06,27,03,56,13.00
2016,06,27,03,57,12.90
2016,06,27,03,58,12.90
2016,06,27,03,59,12.90
2016,06,27,04,00,12.90
2016,06,27,04,01,12.90
2016,06,27,04,02,12.90
2016,06,27,04,03,12.80
2016,06,27,04,04,12.80
2016,06,27,04,05,12.80
2016,06,27,04,06,12.80
2016,06,27,04,07,12.80
2016,06,27,04,08,12.80
2016,06,27,04,09,12.70
2016,06,27,04,10,12.70
2016,06,27,04,11,12.70
2016,06,27,04,12,12.60
2016,06,27,04,13,12.60
2016,06,27,04,14,12.60
2016,06,27,04,15,12.60
2016,06,27,04,16,12.60
2016,06,27,04,17,12.60
2016,06,27,04,18,12.50
2016,06,27,04,19,12.50
2016,06,27,04,20,12.50
2016,06,27,04,21,12.50
2016,06,27,04,22,12.50
2016,06,27,04,23,12.50
2016,06,27,04,24,12.50
2016,06,27,04,25,12.40
2016,06,27,04,26,12.40
2016,06,27,04,27,12.40
2016,06,27,04,28,12.40
2016,06,27,04,29,12.40
2016,06,27,04,30,12.40
2016,06,27,04,31,12.40
2016,06,27,04,32,12.40
2016,06,27,04,33,12.30
2016,06,27,04,34,12.30
2016,06,27,04,35,12.30
2016,06,27,04,36,12.30
2016,06,27,04,37,12.30
2016,06,27,04,38,12.30
2016,06,27,04,39,12.30
2016,06,27,04,40,12.30
2016,06,27,04,41,12.30
2016,06,27,04,42,12.20
2016,06,27,04,43,12.20
2016,06,27,04,44,12.20
2016,06,27,04,45,12.20
2016,06,27,04,46,12.20
2016,06,27,04,47,12.20
2016,06,27,04,48,12.20
2016,06,27,04,49,12.20
2016,06,27,04,50,12.20
2016,06,27,04,51,12.20
2016,06,27,04,52,12.20
2016,06,27,04,53,12.20
2016,06,27,04,54,12.20
2016,06,27,04,55,12.20
2016,06,27,04,56,12.20
2016,06,27,04,57,12.20
2016,06,27,04,58,12.20
2016,06,27,04,59,12.20
2016,06,27,05,00,12.20
2016,06,27,05,01,12.20
2016,06,27,05,02,12.20
2016,06,27,05,03,12.20
2016,06,27,05,04,12.20
2016,06,27,05,05,12.20
2016,06,27,05,06,12.10
2016,06,27,05,07,12.10
2016,06,27,05,08,12.10
2016,06,27,05,09,12.10
2016,06,27,05,10,12.10
2016,06,27,05,11,12.10
2016,06,27,05,12,12.10
2016,06,27,05,13,12.10
2016,06,27,05,14,12.10
2016,06,27,05,15,12.10
2016,06,27,05,16,12.10
2016,06,27,05,17,12.10
2016,06,27,05,18,12.00
2016,06,27,05,19,12.00
2016,06,27,05,20,12.00
2016,06,27,05,21,12.00
2016,06,27,05,22,12.00
2016,06,27,05,23,12.00
2016,06,27,05,24,12.00
2016,06,27,05,25,11.90
2016,06,27,05,26,11.90
2016,06,27,05,27,11.90
2016,06,27,05,28,11.90
2016,06,27,05,29,11.90
2016,06,27,05,30,11.90
2016,06,27,05,31,11.90
2016,06,27,05,32,11.90
2016,06,27,05,33,11.80
2016,06,27,05,34,11.80
2016,06,27,05,35,11.80
2016,06,27,05,36,11.80
2016,06,27,05,37,11.80
2016,06,27,05,38,11.80
2016,06,27,05,39,11.80
2016,06,27,05,40,11.80
2016,06,27,05,41,11.80
2016,06,27,05,42,11.80
2016,06,27,05,43,11.80
2016,06,27,05,44,11.80
2016,06,27,05,45,11.80
2016,06,27,05,46,11.80
2016,06,27,05,47,11.70
2016,06,27,05,48,11.70
2016,06,27,05,49,11.70
2016,06,27,05,50,11.70
2016,06,27,05,51,11.70
2016,06,27,05,52,11.70
2016,06,27,05,53,11.70
2016,06,27,05,54,11.70
2016,06,27,05,55,11.60
2016,06,27,05,56,11.60
2016,06,27,05,57,11.60
2016,06,27,05,58,11.60
2016,06,27,05,59,11.60
2016,06,27,06,00,11.60
2016,06,27,06,01,11.60
2016,06,27,06,02,11.60
2016,06,27,06,03,11.60
2016,06,27,06,04,11.60
2016,06,27,06,05,11.60
2016,06,27,06,06,11.60
2016,06,27,06,07,11.60
2016,06,27,06,08,11.60
2016,06,27,06,09,11.60
2016,06,27,06,10,11.60
2016,06,27,06,11,11.60
2016,06,27,06,12,11.60
2016,06,27,06,13,11.60
2016,06,27,06,14,11.60
2016,06,27,06,15,11.70
2016,06,27,06,16,11.70
2016,06,27,06,17,11.70
2016,06,27,06,18,11.70
2016,06,27,06,19,11.70
2016,06,27,06,20,11.80
2016,06,27,06,21,11.80
2016,06,27,06,22,11.90
2016,06,27,06,23,11.90
2016,06,27,06,24,12.00
2016,06,27,06,25,12.00
2016,06,27,06,26,12.10
2016,06,27,06,27,12.10
2016,06,27,06,28,12.20
2016,06,27,06,29,12.20
2016,06,27,06,30,12.30
2016,06,27,06,31,12.30
2016,06,27,06,32,12.40
2016,06,27,06,33,12.50
2016,06,27,06,34,12.60
2016,06,27,06,35,12.70
2016,06,27,06,36,12.80
2016,06,27,06,37,12.90
2016,06,27,06,38,13.00
2016,06,27,06,39,13.20
2016,06,27,06,40,13.30
2016,06,27,06,41,13.30
2016,06,27,06,42,13.40
2016,06,27,06,43,13.50
2016,06,27,06,44,13.60
2016,06,27,06,45,13.70
2016,06,27,06,46,13.80
2016,06,27,06,47,13.90
2016,06,27,06,48,14.00
2016,06,27,06,49,14.10
2016,06,27,06,50,14.20
2016,06,27,06,51,14.30
2016,06,27,06,52,14.40
2016,06,27,06,53,14.50
2016,06,27,06,54,14.50
2016,06,27,06,55,14.60
2016,06,27,06,56,14.70
2016,06,27,06,57,14.80
2016,06,27,06,58,14.80
2016,06,27,06,59,14.80
2016,06,27,07,00,14.90
2016,06,27,07,01,15.00
2016,06,27,07,02,15.00
2016,06,27,07,03,15.10
2016,06,27,07,04,15.10
2016,06,27,07,05,15.20
2016,06,27,07,06,15.30
2016,06,27,07,07,15.30
2016,06,27,07,08,15.40
2016,06,27,07,09,15.40
2016,06,27,07,10,15.50
2016,06,27,07,11,15.50
2016,06,27,07,12,15.50
2016,06,27,07,13,15.60
2016,06,27,07,14,15.60
2016,06,27,07,15,15.70
2016,06,27,07,16,15.80
2016,06,27,07,17,15.80
2016,06,27,07,18,15.80
2016,06,27,07,19,15.80
2016,06,27,07,20,15.80
2016,06,27,07,21,15.80
2016,06,27,07,22,15.80
2016,06,27,07,23,15.80
2016,06,27,07,24,15.90
2016,06,27,07,25,15.90
2016,06,27,07,26,15.90
2016,06,27,07,27,15.90
2016,06,27,07,28,15.80
2016,06,27,07,29,15.90
2016,06,27,07,30,15.90
2016,06,27,07,31,15.90
2016,06,27,07,32,16.00
2016,06,27,07,33,16.00
2016,06,27,07,34,16.10
2016,06,27,07,35,16.10
2016,06,27,07,36,16.20
2016,06,27,07,37,16.20
2016,06,27,07,38,16.20
2016,06,27,07,39,16.20
2016,06,27,07,40,16.20
2016,06,27,07,41,16.20
2016,06,27,07,42,16.20
2016,06,27,07,43,16.30
2016,06,27,07,44,16.30
2016,06,27,07,45,16.40
2016,06,27,07,46,16.40
2016,06,27,07,47,16.50
2016,06,27,07,48,16.50
2016,06,27,07,49,16.60
2016,06,27,07,50,16.60
2016,06,27,07,51,16.70
2016,06,27,07,52,16.70
2016,06,27,07,53,16.70
2016,06,27,07,54,16.70
2016,06,27,07,55,16.80
2016,06,27,07,56,16.80
2016,06,27,07,57,16.80
2016,06,27,07,58,16.80
2016,06,27,07,59,16.80
2016,06,27,08,00,16.80
2016,06,27,08,01,16.80
2016,06,27,08,02,16.80
2016,06,27,08,03,16.80
2016,06,27,08,04,16.90
2016,06,27,08,05,16.90
2016,06,27,08,06,17.00
2016,06,27,08,07,17.00
2016,06,27,08,08,17.00
2016,06,27,08,09,17.10
2016,06,27,08,10,17.10
2016,06,27,08,11,17.10
2016,06,27,08,12,17.10
2016,06,27,08,13,17.10
2016,06,27,08,14,17.10
2016,06,27,08,15,17.10
2016,06,27,08,16,17.10
2016,06,27,08,17,17.10
2016,06,27,08,18,17.10
2016,06,27,08,19,17.10
2016,06,27,08,20,17.10
2016,06,27,08,21,17.10
2016,06,27,08,22,17.10
2016,06,27,08,23,17.10
2016,06,27,08,24,17.10
2016,06,27,08,25,17.10
2016,06,27,08,26,17.10
2016,06,27,08,27,17.10
2016,06,27,08,28,17.10
2016,06,27,08,29,17.10
2016,06,27,08,30,17.00
2016,06,27,08,31,17.00
2016,06,27,08,32,17.00
2016,06,27,08,33,17.00
2016,06,27,08,34,17.00
2016,06,27,08,35,17.00
2016,06,27,08,36,17.00
2016,06,27,08,37,17.00
2016,06,27,08,38,17.10
2016,06,27,08,39,17.10
2016,06,27,08,40,17.10
2016,06,27,08,41,17.10
2016,06,27,08,42,17.10
2016,06,27,08,43,17.20
2016,06,27,08,44,17.20
2016,06,27,08,45,17.20
2016,06,27,08,46,17.20
2016,06,27,08,47,17.30
2016,06,27,08,48,17.30
2016,06,27,08,49,17.30
2016,06,27,08,50,17.40
2016,06,27,08,51,17.40
2016,06,27,08,52,17.40
2016,06,27,08,53,17.50
2016,06,27,08,54,17.50
2016,06,27,08,55,17.60
2016,06,27,08,56,17.70
2016,06,27,08,57,17.80
2016,06,27,08,58,17.80
2016,06,27,08,59,17.80
2016,06,27,09,00,17.90
2016,06,27,09,01,17.90
2016,06,27,09,02,18.00
2016,06,27,09,03,17.90
2016,06,27,09,04,17.90
2016,06,27,09,05,17.90
2016,06,27,09,06,17.80
2016,06,27,09,07,17.80
2016,06,27,09,08,17.70
2016,06,27,09,09,17.80
2016,06,27,09,10,17.80
2016,06,27,09,11,17.80
2016,06,27,09,12,17.80
2016,06,27,09,13,17.90
2016,06,27,09,14,17.90
2016,06,27,09,15,18.00
2016,06,27,09,16,18.10
2016,06,27,09,17,18.20
2016,06,27,09,18,18.30
2016,06,27,09,19,18.40
2016,06,27,09,20,18.40
2016,06,27,09,21,18.50
2016,06,27,09,22,18.50
2016,06,27,09,23,18.60
2016,06,27,09,24,18.60
2016,06,27,09,25,18.50
2016,06,27,09,26,18.50
2016,06,27,09,27,18.50
2016,06,27,09,28,18.50
2016,06,27,09,29,18.40
2016,06,27,09,30,18.40
2016,06,27,09,31,18.30
2016,06,27,09,32,18.20
2016,06,27,09,33,18.10
2016,06,27,09,34,18.00
2016,06,27,09,35,18.00
2016,06,27,09,36,17.90
2016,06,27,09,37,17.90
2016,06,27,09,38,17.90
2016,06,27,09,39,18.00
2016,06,27,09,40,18.00
2016,06,27,09,41,18.00
2016,06,27,09,42,18.10
2016,06,27,09,43,18.20
2016,06,27,09,44,18.20
2016,06,27,09,45,18.30
2016,06,27,09,46,18.30
2016,06,27,09,47,18.40
2016,06,27,09,48,18.30
2016,06,27,09,49,18.30
2016,06,27,09,50,18.20
2016,06,27,09,51,18.20
2016,06,27,09,52,18.20
2016,06,27,09,53,18.20
2016,06,27,09,54,18.20
2016,06,27,09,55,18.20
2016,06,27,09,56,18.20
2016,06,27,09,57,18.20
2016,06,27,09,58,18.30
2016,06,27,09,59,18.30
2016,06,27,10,00,18.40
2016,06,27,10,01,18.50
2016,06,27,10,02,18.60
2016,06,27,10,03,18.60
2016,06,27,10,04,18.50
2016,06,27,10,05,18.50
2016,06,27,10,06,18.50
2016,06,27,10,07,18.50
2016,06,27,10,08,18.50
2016,06,27,10,09,18.60
2016,06,27,10,10,18.60
2016,06,27,10,11,18.60
2016,06,27,10,12,18.60
2016,06,27,10,13,18.50
2016,06,27,10,14,18.50
2016,06,27,10,15,18.60
2016,06,27,10,16,18.70
2016,06,27,10,17,18.70
2016,06,27,10,18,18.80
2016,06,27,10,19,18.90
2016,06,27,10,20,19.00
2016,06,27,10,21,19.00
2016,06,27,10,22,19.10
2016,06,27,10,23,19.20
2016,06,27,10,24,19.20
2016,06,27,10,25,19.20
2016,06,27,10,26,19.20
2016,06,27,10,27,19.10
2016,06,27,10,28,19.10
2016,06,27,10,29,19.10
2016,06,27,10,30,19.10
2016,06,27,10,31,19.10
2016,06,27,10,32,19.20
2016,06,27,10,33,19.30
2016,06,27,10,34,19.40
2016,06,27,10,35,19.50
2016,06,27,10,36,19.60
2016,06,27,10,37,19.60
2016,06,27,10,38,19.70
2016,06,27,10,39,19.70
2016,06,27,10,40,19.60
2016,06,27,10,41,19.60
2016,06,27,10,42,19.50
2016,06,27,10,43,19.40
2016,06,27,10,44,19.40
2016,06,27,10,45,19.30
2016,06,27,10,46,19.40
2016,06,27,10,47,19.40
2016,06,27,10,48,19.40
2016,06,27,10,49,19.40
2016,06,27,10,50,19.50
2016,06,27,10,51,19.50
2016,06,27,10,52,19.50
2016,06,27,10,53,19.60
2016,06,27,10,54,19.60
2016,06,27,10,55,19.60
2016,06,27,10,56,19.60
2016,06,27,10,57,19.60
2016,06,27,10,58,19.60
2016,06,27,10,59,19.60
2016,06,27,11,00,19.60
2016,06,27,11,01,19.60
2016,06,27,11,02,19.60
2016,06,27,11,03,19.60
2016,06,27,11,04,19.60
2016,06,27,11,05,19.60
2016,06,27,11,06,19.60
2016,06,27,11,07,19.60
2016,06,27,11,08,19.50
2016,06,27,11,09,19.50
2016,06,27,11,10,19.40
2016,06,27,11,11,19.40
2016,06,27,11,12,19.30
2016,06,27,11,13,19.30
2016,06,27,11,14,19.30
2016,06,27,11,15,19.30
2016,06,27,11,16,19.30
2016,06,27,11,17,19.40
2016,06,27,11,18,19.40
2016,06,27,11,19,19.50
2016,06,27,11,20,19.50
2016,06,27,11,21,19.60
2016,06,27,11,22,19.70
2016,06,27,11,23,19.80
2016,06,27,11,24,19.90
2016,06,27,11,25,20.00
2016,06,27,11,26,20.20
2016,06,27,11,27,20.30
2016,06,27,11,28,20.40
2016,06,27,11,29,20.50
2016,06,27,11,30,20.60
2016,06,27,11,31,20.80
2016,06,27,11,32,20.90
2016,06,27,11,33,21.20
2016,06,27,11,34,21.30
2016,06,27,11,35,21.40
2016,06,27,11,36,21.30
2016,06,27,11,37,21.20
2016,06,27,11,38,21.20
2016,06,27,11,39,21.20
2016,06,27,11,40,21.20
2016,06,27,11,41,21.10
2016,06,27,11,42,21.10
2016,06,27,11,43,21.10
2016,06,27,11,44,21.10
2016,06,27,11,45,21.00
2016,06,27,11,46,21.00
2016,06,27,11,47,20.90
2016,06,27,11,48,20.80
2016,06,27,11,49,20.70
2016,06,27,11,50,20.70
2016,06,27,11,51,20.70
2016,06,27,11,52,20.70
2016,06,27,11,53,20.70
2016,06,27,11,54,20.80
2016,06,27,11,55,20.80
2016,06,27,11,56,20.90
2016,06,27,11,57,20.90
2016,06,27,11,58,20.90
2016,06,27,11,59,20.90
2016,06,27,12,00,21.00
2016,06,27,12,01,21.10
2016,06,27,12,02,21.20
2016,06,27,12,03,21.30
2016,06,27,12,04,21.30
2016,06,27,12,05,21.30
2016,06,27,12,06,21.40
2016,06,27,12,07,21.40
2016,06,27,12,08,21.40
2016,06,27,12,09,21.30
2016,06,27,12,10,21.30
2016,06,27,12,11,21.40
2016,06,27,12,12,21.40
2016,06,27,12,13,21.30
2016,06,27,12,14,21.30
2016,06,27,12,15,21.30
2016,06,27,12,16,21.40
2016,06,27,12,17,21.30
2016,06,27,12,18,21.30
2016,06,27,12,19,21.30
2016,06,27,12,20,21.30
2016,06,27,12,21,21.30
2016,06,27,12,22,21.30
2016,06,27,12,23,21.30
2016,06,27,12,24,21.20
2016,06,27,12,25,21.20
2016,06,27,12,26,21.20
2016,06,27,12,27,21.20
2016,06,27,12,28,21.20
2016,06,27,12,29,21.30
2016,06,27,12,30,21.30
2016,06,27,12,31,21.40
2016,06,27,12,32,21.40
2016,06,27,12,33,21.40
2016,06,27,12,34,21.40
2016,06,27,12,35,21.40
2016,06,27,12,36,21.30
2016,06,27,12,37,21.30
2016,06,27,12,38,21.30
2016,06,27,12,39,21.30
2016,06,27,12,40,21.30
2016,06,27,12,41,21.30
2016,06,27,12,42,21.30
2016,06,27,12,43,21.20
2016,06,27,12,44,21.10
2016,06,27,12,45,21.10
2016,06,27,12,46,21.00
2016,06,27,12,47,21.00
2016,06,27,12,48,21.00
2016,06,27,12,49,21.10
2016,06,27,12,50,21.10
2016,06,27,12,51,21.10
2016,06,27,12,52,21.20
2016,06,27,12,53,21.20
2016,06,27,12,54,21.20
2016,06,27,12,55,21.30
2016,06,27,12,56,21.30
2016,06,27,12,57,21.30
2016,06,27,12,58,21.20
2016,06,27,12,59,21.30
2016,06,27,13,00,21.30
2016,06,27,13,01,21.40
2016,06,27,13,02,21.50
2016,06,27,13,03,21.60
2016,06,27,13,04,21.70
2016,06,27,13,05,21.60
2016,06,27,13,06,21.60
2016,06,27,13,07,21.60
2016,06,27,13,08,21.70
2016,06,27,13,09,21.70
2016,06,27,13,10,21.70
2016,06,27,13,11,21.70
2016,06,27,13,12,21.60
2016,06,27,13,13,21.60
2016,06,27,13,14,21.60
2016,06,27,13,15,21.60
2016,06,27,13,16,21.60
2016,06,27,13,17,21.60
2016,06,27,13,18,21.60
2016,06,27,13,19,21.60
2016,06,27,13,20,21.50
2016,06,27,13,21,21.40
2016,06,27,13,22,21.40
2016,06,27,13,23,21.50
2016,06,27,13,24,21.50
2016,06,27,13,25,21.60
2016,06,27,13,26,21.70
2016,06,27,13,27,21.70
2016,06,27,13,28,21.70
2016,06,27,13,29,21.70
2016,06,27,13,30,21.60
2016,06,27,13,31,21.60
2016,06,27,13,32,21.60
2016,06,27,13,33,21.60
2016,06,27,13,34,21.60
2016,06,27,13,35,21.60
2016,06,27,13,36,21.70
2016,06,27,13,37,21.80
2016,06,27,13,38,21.90
2016,06,27,13,39,22.00
2016,06,27,13,40,22.00
2016,06,27,13,41,22.00
2016,06,27,13,42,22.00
2016,06,27,13,43,22.10
2016,06,27,13,44,22.10
2016,06,27,13,45,22.10
2016,06,27,13,46,22.10
2016,06,27,13,47,22.10
2016,06,27,13,48,22.10
2016,06,27,13,49,22.10
2016,06,27,13,50,22.10
2016,06,27,13,51,22.00
2016,06,27,13,52,22.00
2016,06,27,13,53,21.90
2016,06,27,13,54,21.90
2016,06,27,13,55,21.90
2016,06,27,13,56,21.80
2016,06,27,13,57,21.70
2016,06,27,13,58,21.80
2016,06,27,13,59,21.80
2016,06,27,14,00,21.80
2016,06,27,14,01,21.80
2016,06,27,14,02,21.90
2016,06,27,14,03,22.00
2016,06,27,14,04,22.10
2016,06,27,14,05,22.20
2016,06,27,14,06,22.30
2016,06,27,14,07,22.30
2016,06,27,14,08,22.40
2016,06,27,14,09,22.50
2016,06,27,14,10,22.60
2016,06,27,14,11,22.60
2016,06,27,14,12,22.60
2016,06,27,14,13,22.70
2016,06,27,14,14,22.80
2016,06,27,14,15,22.80
2016,06,27,14,16,22.90
2016,06,27,14,17,22.90
2016,06,27,14,18,22.80
2016,06,27,14,19,22.70
2016,06,27,14,20,22.60
2016,06,27,14,21,22.50
2016,06,27,14,22,22.50
2016,06,27,14,23,22.40
2016,06,27,14,24,22.40
2016,06,27,14,25,22.40
2016,06,27,14,26,22.50
2016,06,27,14,27,22.50
2016,06,27,14,28,22.60
2016,06,27,14,29,22.60
2016,06,27,14,30,22.60
2016,06,27,14,31,22.60
2016,06,27,14,32,22.70
2016,06,27,14,33,22.70
2016,06,27,14,34,22.80
2016,06,27,14,35,22.80
2016,06,27,14,36,22.80
2016,06,27,14,37,22.90
2016,06,27,14,38,22.90
2016,06,27,14,39,22.90
2016,06,27,14,40,23.00
2016,06,27,14,41,23.00
2016,06,27,14,42,23.10
2016,06,27,14,43,23.10
2016,06,27,14,44,23.20
2016,06,27,14,45,23.30
2016,06,27,14,46,23.30
2016,06,27,14,47,23.40
2016,06,27,14,48,23.50
2016,06,27,14,49,23.50
2016,06,27,14,50,23.60
2016,06,27,14,51,23.70
2016,06,27,14,52,23.80
2016,06,27,14,53,23.90
2016,06,27,14,54,23.90
2016,06,27,14,55,23.90
2016,06,27,14,56,24.00
2016,06,27,14,57,24.00
2016,06,27,14,58,24.00
2016,06,27,14,59,24.00
2016,06,27,15,00,24.00
2016,06,27,15,01,24.10
2016,06,27,15,02,24.10
2016,06,27,15,03,24.20
2016,06,27,15,04,24.30
2016,06,27,15,05,24.30
2016,06,27,15,06,24.40
2016,06,27,15,07,24.40
2016,06,27,15,08,24.40
2016,06,27,15,09,24.40
2016,06,27,15,10,24.30
2016,06,27,15,11,24.30
2016,06,27,15,12,24.30
2016,06,27,15,13,24.30
2016,06,27,15,14,24.30
2016,06,27,15,15,24.30
2016,06,27,15,16,24.30
2016,06,27,15,17,24.20
2016,06,27,15,18,24.20
2016,06,27,15,19,24.20
2016,06,27,15,20,24.20
2016,06,27,15,21,24.20
2016,06,27,15,22,24.30
2016,06,27,15,23,24.40
2016,06,27,15,24,24.50
2016,06,27,15,25,24.50
2016,06,27,15,26,24.50
2016,06,27,15,27,24.50
2016,06,27,15,28,24.50
2016,06,27,15,29,24.60
2016,06,27,15,30,24.60
2016,06,27,15,31,24.60
2016,06,27,15,32,24.70
2016,06,27,15,33,24.70
2016,06,27,15,34,24.70
2016,06,27,15,35,24.80
2016,06,27,15,36,24.80
2016,06,27,15,37,24.80
2016,06,27,15,38,24.80
2016,06,27,15,39,24.80
2016,06,27,15,40,24.90
2016,06,27,15,41,24.90
2016,06,27,15,42,24.90
2016,06,27,15,43,24.90
2016,06,27,15,44,24.80
2016,06,27,15,45,24.80
2016,06,27,15,46,24.80
2016,06,27,15,47,24.80
2016,06,27,15,48,24.80
2016,06,27,15,49,24.70
2016,06,27,15,50,24.70
2016,06,27,15,51,24.70
2016,06,27,15,52,24.70
2016,06,27,15,53,24.70
2016,06,27,15,54,24.70
2016,06,27,15,55,24.70
2016,06,27,15,56,24.70
2016,06,27,15,57,24.70
2016,06,27,15,58,24.70
2016,06,27,15,59,24.60
2016,06,27,16,00,24.60
2016,06,27,16,01,24.60
2016,06,27,16,02,24.60
2016,06,27,16,03,24.70
2016,06,27,16,04,24.70
2016,06,27,16,05,24.80
2016,06,27,16,06,24.80
2016,06,27,16,07,24.90
2016,06,27,16,08,24.90
2016,06,27,16,09,24.90
2016,06,27,16,10,25.00
2016,06,27,16,11,25.00
2016,06,27,16,12,25.10
2016,06,27,16,13,25.20
2016,06,27,16,14,25.20
2016,06,27,16,15,25.30
2016,06,27,16,16,25.30
2016,06,27,16,17,25.30
2016,06,27,16,18,25.30
2016,06,27,16,19,25.40
2016,06,27,16,20,25.50
2016,06,27,16,21,25.60
2016,06,27,16,22,25.80
2016,06,27,16,23,25.90
2016,06,27,16,24,26.00
2016,06,27,16,25,26.10
2016,06,27,16,26,26.10
2016,06,27,16,27,26.20
2016,06,27,16,28,26.30
2016,06,27,16,29,26.30
2016,06,27,16,30,26.40
2016,06,27,16,31,26.40
2016,06,27,16,32,26.50
2016,06,27,16,33,26.50
2016,06,27,16,34,26.60
2016,06,27,16,35,26.60
2016,06,27,16,36,26.70
2016,06,27,16,37,26.70
2016,06,27,16,38,26.70
2016,06,27,16,39,26.70
2016,06,27,16,40,26.60
2016,06,27,16,41,26.60
2016,06,27,16,42,26.60
2016,06,27,16,43,26.50
2016,06,27,16,44,26.50
2016,06,27,16,45,26.50
2016,06,27,16,46,26.60
2016,06,27,16,47,26.60
2016,06,27,16,48,26.60
2016,06,27,16,49,26.60
2016,06,27,16,50,26.50
2016,06,27,16,51,26.50
2016,06,27,16,52,26.40
2016,06,27,16,53,26.40
2016,06,27,16,54,26.40
2016,06,27,16,55,26.40
2016,06,27,16,56,26.40
2016,06,27,16,57,26.30
2016,06,27,16,58,26.30
2016,06,27,16,59,26.30
2016,06,27,17,00,26.30
2016,06,27,17,01,26.40
2016,06,27,17,02,26.40
2016,06,27,17,03,26.40
2016,06,27,17,04,26.40
2016,06,27,17,05,26.40
2016,06,27,17,06,26.40
2016,06,27,17,07,26.40
2016,06,27,17,08,26.30
2016,06,27,17,09,26.30
2016,06,27,17,10,26.30
2016,06,27,17,11,26.30
2016,06,27,17,12,26.30
2016,06,27,17,13,26.30
2016,06,27,17,14,26.20
2016,06,27,17,15,26.20
2016,06,27,17,16,26.10
2016,06,27,17,17,26.10
2016,06,27,17,18,26.00
2016,06,27,17,19,26.00